Weather History for Crystal River, FL

Change the Weather History Date:

Tuesday, September 18, 2012

  Actual Average (KBKV) Record (KBKV)
Temperature  
Mean Temperature 76 °F -  
Max Temperature 78 °F 86 °F 93 °F (2005)
Min Temperature 73 °F 68 °F 61 °F (2003)
Cooling Degree Days 10    
Growing Degree Days 26 (Base 50)    
Moisture  
Dew Point 74 °F    
Average Humidity 95    
Maximum Humidity 100    
Minimum Humidity 89    
Precipitation  
Precipitation 0.89 in - - ()
Sea Level Pressure  
Sea Level Pressure 29.90 in    
Wind  
Wind Speed 2 mph (South)    
Max Wind Speed 15 mph    
Max Gust Speed 44 mph    
Visibility 9 miles    
Events Rain , Thunderstorm    
Averages and records for this station are not official NWS values.
T = Trace of Precipitation, MM = Missing Value Source: NWS Daily Summary

Daily Weather History Graph

Daily Weather History Graph

Search for Another Location

Airport:

Trip Planner

Search our weather history database for the weather conditions in past years. The results will help you decide how hot, cold, wet, or windy it might be!

Date:

Astronomy

Sep. 18, 2012 Rise Set
Actual Time 7:16 AM EDT 7:31 PM EDT
Civil Twilight 6:53 AM EDT 7:54 PM EDT
Nautical Twilight 6:25 AM EDT 8:22 PM EDT
Astronomical Twilight 5:57 AM EDT 8:50 PM EDT
Moon 9:55 AM EDT (9/18) 9:14 PM EDT (9/18)
Length of Visible Light 13h 01m
Length of Day
12h 14m
Waxing Crescent, 9% of the Moon is Illuminated
Sep 18
Waxing Crescent
Sep 22
First Quarter
Sep 29
Full
Oct 8
Last Quarter
Oct 15
New

Hourly Weather History & Observations

Time (EDT) Temp. Dew Point Humidity Pressure Visibility Wind Dir Wind Speed Gust Speed Precip Events Conditions
12:15 AM 75.2 °F 73.4 °F 94% 29.94 in 10.0 mi Calm Calm - N/A   Scattered Clouds
12:35 AM 73.4 °F 73.4 °F 100% 29.93 in 10.0 mi Calm Calm - N/A   Clear
12:55 AM 73.4 °F 71.6 °F 94% 29.92 in 10.0 mi SE 3.5 mph - N/A   Clear
1:15 AM 73.4 °F 71.6 °F 94% 29.92 in 10.0 mi SE 3.5 mph - N/A   Clear
1:35 AM 73.4 °F 71.6 °F 94% 29.91 in 10.0 mi SE 3.5 mph - N/A   Clear
1:55 AM 73.4 °F 73.4 °F 100% 29.91 in 10.0 mi SE 4.6 mph - N/A   Clear
2:15 AM 73.4 °F 73.4 °F 100% 29.91 in 10.0 mi SE 3.5 mph - N/A   Clear
2:35 AM 73.4 °F 73.4 °F 100% 29.90 in 10.0 mi SE 3.5 mph - N/A   Clear
2:55 AM 73.4 °F 73.4 °F 100% 29.90 in 10.0 mi SE 3.5 mph - N/A   Clear
3:35 AM 73.4 °F 73.4 °F 100% 29.88 in 10.0 mi Calm Calm - N/A   Clear
4:15 AM 73.4 °F 73.4 °F 100% 29.88 in 10.0 mi Calm Calm - N/A   Clear
4:35 AM 73.4 °F 73.4 °F 100% 29.88 in 10.0 mi Calm Calm - N/A   Scattered Clouds
4:55 AM 73.4 °F 73.4 °F 100% 29.88 in 10.0 mi SE 3.5 mph - N/A   Mostly Cloudy
5:15 AM 75.2 °F 73.4 °F 94% 29.88 in 10.0 mi SSE 4.6 mph - N/A   Mostly Cloudy
5:35 AM 75.2 °F 73.4 °F 94% 29.88 in 10.0 mi SSE 3.5 mph - N/A Thunderstorm Overcast
5:55 AM 75.2 °F 73.4 °F 94% 29.87 in 10.0 mi SSE 5.8 mph - N/A Thunderstorm Mostly Cloudy
6:15 AM 75.2 °F 73.4 °F 94% 29.87 in 10.0 mi Calm Calm - N/A Thunderstorm Mostly Cloudy
6:35 AM 75.2 °F 73.4 °F 94% 29.87 in 10.0 mi Calm Calm - N/A Thunderstorm Mostly Cloudy
6:55 AM 75.2 °F 73.4 °F 94% 29.88 in 10.0 mi SSE 3.5 mph - N/A Thunderstorm Thunderstorm
10:55 AM 77.0 °F 73.4 °F 89% 29.92 in 10.0 mi SW 3.5 mph - 0.04 in Thunderstorm Thunderstorm
11:15 AM 78.8 °F 77.0 °F 94% 29.92 in 10.0 mi SSW 4.6 mph - N/A Thunderstorm Scattered Clouds
11:35 AM 77.0 °F 73.4 °F 89% 29.95 in 1.2 mi WSW 9.2 mph 43.7 mph 0.30 in Rain , Thunderstorm Heavy Thunderstorms and Rain
11:55 AM 77.0 °F 75.2 °F 94% 29.95 in 5.0 mi West 15.0 mph 25.3 mph 0.33 in Rain , Thunderstorm Thunderstorms and Rain
12:15 PM 73.4 °F 71.6 °F 94% 29.94 in 3.0 mi West 6.9 mph - 0.08 in Rain , Thunderstorm Heavy Thunderstorms and Rain
12:35 PM 73.4 °F 71.6 °F 94% 29.94 in 1.0 mi WSW 4.6 mph - 0.43 in Rain , Thunderstorm Heavy Thunderstorms and Rain
12:55 PM 73.4 °F 73.4 °F 100% 29.94 in 7.0 mi Calm Calm - 0.43 in Rain , Thunderstorm Rain
1:15 PM 73.4 °F 73.4 °F 100% 29.93 in 5.0 mi Calm Calm - 0.01 in Rain , Thunderstorm Light Thunderstorms and Rain
1:35 PM 73.4 °F 73.4 °F 100% 29.93 in 5.0 mi Calm Calm - 0.02 in Rain , Thunderstorm Light Thunderstorms and Rain
1:55 PM 75.2 °F 75.2 °F 100% 29.93 in 5.0 mi SE 3.5 mph - 0.02 in   Mostly Cloudy
2:15 PM 77.0 °F 75.2 °F 94% 29.91 in 7.0 mi SSE 3.5 mph - N/A Rain Light Rain
2:35 PM 77.0 °F 75.2 °F 94% 29.89 in 4.0 mi Calm Calm - 0.02 in Rain Rain
2:55 PM 75.2 °F 75.2 °F 100% 29.88 in 7.0 mi Calm Calm - 0.03 in Rain Light Rain
3:15 PM 77.0 °F 77.0 °F 100% 29.89 in 7.0 mi SSW 3.5 mph - N/A   Mostly Cloudy
3:35 PM 78.8 °F 77.0 °F 94% 29.89 in 7.0 mi Calm Calm - N/A   Overcast
3:55 PM 78.8 °F 77.0 °F 94% 29.87 in 4.0 mi Calm Calm - 0.02 in Rain Light Rain
4:15 PM 78.8 °F 77.0 °F 94% 29.87 in 10.0 mi Calm Calm - N/A   Scattered Clouds
4:35 PM 78.8 °F 77.0 °F 94% 29.87 in 10.0 mi SSW 4.6 mph - N/A   Scattered Clouds
4:55 PM 78.8 °F 75.2 °F 89% 29.88 in 10.0 mi South 3.5 mph - N/A   Mostly Cloudy
5:15 PM 78.8 °F 75.2 °F 89% 29.88 in 10.0 mi South 4.6 mph - N/A   Mostly Cloudy
5:55 PM 78.8 °F 75.2 °F 89% 29.88 in 10.0 mi Calm Calm - N/A   Scattered Clouds
6:15 PM 78.8 °F 75.2 °F 89% 29.88 in 10.0 mi Calm Calm - N/A   Scattered Clouds
6:35 PM 77.0 °F 75.2 °F 94% 29.86 in 10.0 mi Calm Calm - N/A   Mostly Cloudy
6:55 PM 77.0 °F 75.2 °F 94% 29.86 in 10.0 mi SSE 3.5 mph - N/A   Overcast
7:15 PM 77.0 °F 75.2 °F 94% 29.86 in 10.0 mi Calm Calm - N/A   Mostly Cloudy
7:35 PM 77.0 °F 75.2 °F 94% 29.86 in 10.0 mi Calm Calm - N/A   Mostly Cloudy
7:55 PM 77.0 °F 75.2 °F 94% 29.86 in 10.0 mi SSE 3.5 mph - N/A   Mostly Cloudy
8:15 PM 77.0 °F 75.2 °F 94% 29.87 in 10.0 mi Calm Calm - N/A   Mostly Cloudy
8:35 PM 77.0 °F 73.4 °F 89% 29.88 in 10.0 mi Calm Calm - N/A   Scattered Clouds
8:55 PM 77.0 °F 73.4 °F 89% 29.89 in 10.0 mi Calm Calm - N/A   Clear
9:15 PM 77.0 °F 73.4 °F 89% 29.90 in 10.0 mi South 3.5 mph - N/A   Clear
9:35 PM 77.0 °F 73.4 °F 89% 29.91 in 10.0 mi Calm Calm - N/A   Clear
9:55 PM 77.0 °F 73.4 °F 89% 29.91 in 10.0 mi Calm Calm - N/A   Clear
10:15 PM 75.2 °F 73.4 °F 94% 29.93 in 10.0 mi Calm Calm - N/A   Clear
10:35 PM 75.2 °F 73.4 °F 94% 29.92 in 5.0 mi SSE 3.5 mph - 0.02 in Rain Heavy Rain
10:55 PM 75.2 °F 73.4 °F 94% 29.93 in 10.0 mi Calm Calm - 0.02 in   Mostly Cloudy
11:15 PM 75.2 °F 73.4 °F 94% 29.93 in 10.0 mi Calm Calm - N/A   Scattered Clouds
11:55 PM 75.2 °F 73.4 °F 94% 29.91 in 10.0 mi Calm Calm - N/A   Clear